Location: Bouillancy
(49.1149°N, 2.9308°E)
Time: 23:12:48
(UTC+00:00)

Cosmos 1464 Rocket - Pass Details

Date: 30 September 2020
Orbit: 953 x 1000 km, 82.9° (Epoch: 25 October)

Event Time Altitude Azimuth Distance (km) Brightness Sun altitude
Rises 17:51:09 0° 181° (S) 3,624 7.0 -4.6°
Reaches altitude 10° 17:53:37 10° 179° (S) 2,686 6.3 -5.0°
Maximum altitude 17:59:45 74° 95° (E) 1,006 4.0 -6.0°
Drops below altitude 10° 18:05:59 10° 12° (NNE) 2,735 6.3 -7.0°
Sets 18:08:31 0° 11° (N) 3,693 7.0 -7.4°
